Time,TemperatureF,DewpointF,PressureIn,WindDirection,WindDirectionDegrees,WindSpeedMPH,WindSpeedGustMPH,Humidity,HourlyPrecipIn,Conditions,Clouds,dailyrainin,SolarRadiationWatts/m^2,SoftwareType,DateUTC
2013-08-20 00:02:00,70.0,67.0,-100.00,South,188,4.0,9.0,90,0.00,,,0.07,1.000000,,2013-08-20 05:02:00,
2013-08-20 00:12:00,70.0,67.0,-100.00,South,188,4.0,9.0,90,0.00,,,0.07,1.000000,,2013-08-20 05:12:00,
2013-08-20 00:43:00,69.0,66.0,-100.00,South,188,4.0,10.0,90,0.00,,,0.07,0.000000,,2013-08-20 05:43:00,
2013-08-20 00:52:00,69.0,66.0,-100.00,South,188,4.0,10.0,90,0.00,,,0.07,0.000000,,2013-08-20 05:52:00,
2013-08-20 01:02:00,69.0,66.0,-100.00,South,188,4.0,10.0,90,0.00,,,0.07,0.000000,,2013-08-20 06:02:00,
2013-08-20 01:11:00,69.0,66.0,-100.00,South,188,4.0,10.0,90,0.00,,,0.07,0.000000,,2013-08-20 06:11:00,
2013-08-20 01:42:00,69.0,66.0,-100.00,South,181,5.0,11.0,91,0.00,,,0.07,1.000000,,2013-08-20 06:42:00,
2013-08-20 01:52:00,69.0,66.0,-100.00,South,181,5.0,11.0,91,0.00,,,0.07,1.000000,,2013-08-20 06:52:00,
2013-08-20 02:01:00,69.0,66.0,-100.00,South,181,5.0,11.0,91,0.00,,,0.07,1.000000,,2013-08-20 07:01:00,
2013-08-20 02:11:00,69.0,66.0,-100.00,South,181,5.0,11.0,91,0.00,,,0.07,1.000000,,2013-08-20 07:11:00,
2013-08-20 02:42:00,68.0,66.0,-100.00,South,188,4.0,11.0,93,0.01,,,0.08,1.000000,,2013-08-20 07:42:00,
2013-08-20 02:52:00,68.0,66.0,-100.00,South,188,4.0,11.0,93,0.01,,,0.08,1.000000,,2013-08-20 07:52:00,
2013-08-20 03:02:00,68.0,66.0,-100.00,South,188,4.0,11.0,93,0.01,,,0.08,1.000000,,2013-08-20 08:02:00,
2013-08-20 03:11:00,68.0,66.0,-100.00,South,188,4.0,11.0,93,0.01,,,0.08,1.000000,,2013-08-20 08:11:00,
2013-08-20 03:42:00,67.0,66.0,-100.00,South,180,4.0,10.0,95,0.00,,,-99.99,1.000000,,2013-08-20 08:42:00,
2013-08-20 03:52:00,67.0,66.0,-100.00,South,180,4.0,10.0,95,0.00,,,-99.99,1.000000,,2013-08-20 08:52:00,
2013-08-20 04:01:00,67.0,66.0,-100.00,South,180,4.0,10.0,95,0.00,,,-99.99,1.000000,,2013-08-20 09:01:00,
2013-08-20 04:11:00,67.0,66.0,-100.00,South,180,4.0,10.0,95,0.00,,,-99.99,1.000000,,2013-08-20 09:11:00,
2013-08-20 04:42:00,67.0,66.0,-100.00,South,179,4.0,8.0,97,0.00,,,0.08,1.000000,,2013-08-20 09:42:00,
2013-08-20 04:53:00,67.0,66.0,-100.00,South,179,4.0,8.0,97,0.00,,,0.08,1.000000,,2013-08-20 09:53:00,
2013-08-20 05:04:00,67.0,66.0,-100.00,South,179,4.0,8.0,97,0.00,,,0.08,1.000000,,2013-08-20 10:04:00,
2013-08-20 05:12:00,67.0,66.0,-100.00,South,179,4.0,8.0,97,0.00,,,0.08,1.000000,,2013-08-20 10:12:00,
2013-08-20 05:43:00,67.0,66.0,-100.00,South,176,4.0,8.0,98,0.00,,,0.08,1.000000,,2013-08-20 10:43:00,
2013-08-20 05:52:00,67.0,66.0,-100.00,South,176,4.0,8.0,98,0.00,,,0.08,1.000000,,2013-08-20 10:52:00,
2013-08-20 06:02:00,67.0,66.0,-100.00,South,176,4.0,8.0,98,0.00,,,0.08,1.000000,,2013-08-20 11:02:00,
2013-08-20 06:11:00,67.0,66.0,-100.00,South,176,4.0,8.0,98,0.00,,,0.08,1.000000,,2013-08-20 11:11:00,
2013-08-20 06:42:00,66.0,66.0,-100.00,South,170,4.0,8.0,99,0.00,,,0.08,1.000000,,2013-08-20 11:42:00,
2013-08-20 06:52:00,66.0,66.0,-100.00,South,170,4.0,8.0,99,0.00,,,0.08,1.000000,,2013-08-20 11:52:00,
2013-08-20 07:01:00,66.0,66.0,-100.00,South,170,4.0,8.0,99,0.00,,,0.08,1.000000,,2013-08-20 12:01:00,
2013-08-20 07:12:00,66.0,66.0,-100.00,South,170,4.0,8.0,99,0.00,,,0.08,1.000000,,2013-08-20 12:12:00,
2013-08-20 07:42:00,67.0,67.0,-100.00,South,171,4.0,7.0,99,0.00,,,0.08,41.000000,,2013-08-20 12:42:00,
2013-08-20 07:52:00,67.0,67.0,-100.00,South,171,4.0,7.0,99,0.00,,,0.08,41.000000,,2013-08-20 12:52:00,
2013-08-20 08:01:00,67.0,67.0,-100.00,South,171,4.0,7.0,99,0.00,,,0.08,41.000000,,2013-08-20 13:01:00,
2013-08-20 08:11:00,67.0,67.0,-100.00,South,171,4.0,7.0,99,0.00,,,0.08,41.000000,,2013-08-20 13:11:00,
2013-08-20 08:42:00,72.0,68.0,-100.00,South,178,5.0,11.0,88,0.00,,,0.08,156.000000,,2013-08-20 13:42:00,
2013-08-20 08:52:00,72.0,68.0,-100.00,South,178,5.0,11.0,88,0.00,,,0.08,156.000000,,2013-08-20 13:52:00,
2013-08-20 09:02:00,72.0,68.0,-100.00,South,178,5.0,11.0,88,0.00,,,0.08,156.000000,,2013-08-20 14:02:00,
2013-08-20 09:11:00,72.0,68.0,-100.00,South,178,5.0,11.0,88,0.00,,,0.08,156.000000,,2013-08-20 14:11:00,
2013-08-20 09:42:00,75.0,69.0,-100.00,SSW,202,4.0,11.0,81,0.00,,,0.08,343.000000,,2013-08-20 14:42:00,
2013-08-20 09:52:00,75.0,69.0,-100.00,SSW,202,4.0,11.0,81,0.00,,,0.08,343.000000,,2013-08-20 14:52:00,
2013-08-20 10:02:00,75.0,69.0,-100.00,SSW,202,4.0,11.0,81,0.00,,,0.08,343.000000,,2013-08-20 15:02:00,
2013-08-20 10:11:00,75.0,69.0,-100.00,SSW,202,4.0,11.0,81,0.00,,,0.08,343.000000,,2013-08-20 15:11:00,
2013-08-20 10:13:00,79.0,71.0,-100.00,South,188,4.0,12.0,76,0.00,,,0.08,512.000000,,2013-08-20 15:13:00,
2013-08-20 10:43:00,79.0,71.0,-100.00,South,188,4.0,12.0,76,0.00,,,0.08,512.000000,,2013-08-20 15:43:00,
2013-08-20 10:53:00,79.0,71.0,-100.00,South,188,4.0,12.0,76,0.00,,,0.08,512.000000,,2013-08-20 15:53:00,
2013-08-20 11:04:00,79.0,71.0,-100.00,South,188,4.0,12.0,76,0.00,,,0.08,512.000000,,2013-08-20 16:04:00,
2013-08-20 11:42:00,83.0,72.0,-100.00,SSW,202,4.0,13.0,70,0.00,,,0.08,579.000000,,2013-08-20 16:42:00,
2013-08-20 11:53:00,83.0,72.0,-100.00,SSW,202,4.0,13.0,70,0.00,,,0.08,579.000000,,2013-08-20 16:53:00,
2013-08-20 12:03:00,83.0,72.0,-100.00,SSW,202,4.0,13.0,70,0.00,,,0.08,579.000000,,2013-08-20 17:03:00,
2013-08-20 12:12:00,83.0,72.0,-100.00,SSW,202,4.0,13.0,70,0.00,,,0.08,579.000000,,2013-08-20 17:12:00,
2013-08-20 12:43:00,85.0,70.0,-100.00,South,184,6.0,13.0,61,0.00,,,0.08,753.000000,,2013-08-20 17:43:00,
2013-08-20 12:52:00,85.0,70.0,-100.00,South,184,6.0,13.0,61,0.00,,,0.08,753.000000,,2013-08-20 17:52:00,
2013-08-20 13:02:00,85.0,70.0,-100.00,South,184,6.0,13.0,61,0.00,,,0.08,753.000000,,2013-08-20 18:02:00,
2013-08-20 13:12:00,85.0,70.0,-100.00,South,184,6.0,13.0,61,0.00,,,0.08,753.000000,,2013-08-20 18:12:00,
2013-08-20 13:43:00,88.0,69.0,-100.00,SSW,206,5.0,15.0,54,0.00,,,-99.99,819.000000,,2013-08-20 18:43:00,
2013-08-20 13:52:00,88.0,69.0,-100.00,SSW,206,5.0,15.0,54,0.00,,,-99.99,819.000000,,2013-08-20 18:52:00,
2013-08-20 14:01:00,88.0,69.0,-100.00,SSW,206,5.0,15.0,54,0.00,,,-99.99,819.000000,,2013-08-20 19:01:00,
2013-08-20 14:11:00,88.0,69.0,-100.00,SSW,206,5.0,15.0,54,0.00,,,-99.99,819.000000,,2013-08-20 19:11:00,
2013-08-20 14:42:00,90.0,68.0,-100.00,SW,228,4.0,12.0,49,0.00,,,0.08,802.000000,,2013-08-20 19:42:00,
2013-08-20 14:53:00,90.0,68.0,-100.00,SW,228,4.0,12.0,49,0.00,,,0.08,802.000000,,2013-08-20 19:53:00,
2013-08-20 15:03:00,90.0,68.0,-100.00,SW,228,4.0,12.0,49,0.00,,,0.08,802.000000,,2013-08-20 20:03:00,
2013-08-20 15:12:00,90.0,68.0,-100.00,SW,228,4.0,12.0,49,0.00,,,0.08,802.000000,,2013-08-20 20:12:00,
2013-08-20 15:42:00,90.0,66.0,-100.00,SSW,213,6.0,16.0,45,0.00,,,0.08,744.000000,,2013-08-20 20:42:00,
2013-08-20 15:52:00,90.0,66.0,-100.00,SSW,213,6.0,16.0,45,0.00,,,0.08,744.000000,,2013-08-20 20:52:00,
2013-08-20 16:02:00,90.0,66.0,-100.00,SSW,213,6.0,16.0,45,0.00,,,0.08,744.000000,,2013-08-20 21:02:00,
2013-08-20 16:11:00,90.0,66.0,-100.00,SSW,213,6.0,16.0,45,0.00,,,0.08,744.000000,,2013-08-20 21:11:00,
2013-08-20 16:13:00,90.0,68.0,-100.00,SSW,193,5.0,11.0,48,0.00,,,0.08,628.000000,,2013-08-20 21:13:00,
2013-08-20 17:42:00,88.0,67.0,-100.00,South,178,6.0,17.0,50,0.00,,,0.08,477.000000,,2013-08-20 22:42:00,
2013-08-20 17:54:00,88.0,67.0,-100.00,South,178,6.0,17.0,50,0.00,,,0.08,477.000000,,2013-08-20 22:54:00,
2013-08-20 18:03:00,88.0,67.0,-100.00,South,178,6.0,17.0,50,0.00,,,0.08,477.000000,,2013-08-20 23:03:00,
2013-08-20 18:12:00,88.0,67.0,-100.00,South,178,6.0,17.0,50,0.00,,,0.08,477.000000,,2013-08-20 23:12:00,
2013-08-20 18:43:00,86.0,67.0,-100.00,SSW,213,4.0,13.0,54,0.00,,,0.08,306.000000,,2013-08-20 23:43:00,
2013-08-20 18:53:00,86.0,67.0,-100.00,SSW,213,4.0,13.0,54,0.00,,,0.08,306.000000,,2013-08-20 23:53:00,
2013-08-20 19:02:00,86.0,67.0,-100.00,SSW,213,4.0,13.0,54,0.00,,,0.08,306.000000,,2013-08-21 00:02:00,
2013-08-20 19:12:00,86.0,67.0,-100.00,SSW,213,4.0,13.0,54,0.00,,,0.08,306.000000,,2013-08-21 00:12:00,
2013-08-20 19:42:00,83.0,68.0,-100.00,South,181,4.0,10.0,61,0.00,,,0.08,120.000000,,2013-08-21 00:42:00,
2013-08-20 19:52:00,83.0,68.0,-100.00,South,181,4.0,10.0,61,0.00,,,0.08,120.000000,,2013-08-21 00:52:00,
2013-08-20 20:02:00,83.0,68.0,-100.00,South,181,4.0,10.0,61,0.00,,,0.08,120.000000,,2013-08-21 01:02:00,
2013-08-20 20:11:00,83.0,68.0,-100.00,South,181,4.0,10.0,61,0.00,,,0.08,120.000000,,2013-08-21 01:11:00,
2013-08-20 20:42:00,78.0,68.0,-100.00,South,177,4.0,9.0,71,0.00,,,0.08,22.000000,,2013-08-21 01:42:00,
2013-08-20 20:52:00,78.0,68.0,-100.00,South,177,4.0,9.0,71,0.00,,,0.08,22.000000,,2013-08-21 01:52:00,
2013-08-20 21:02:00,78.0,68.0,-100.00,South,177,4.0,9.0,71,0.00,,,0.08,22.000000,,2013-08-21 02:02:00,
2013-08-20 21:12:00,78.0,68.0,-100.00,South,177,4.0,9.0,71,0.00,,,0.08,22.000000,,2013-08-21 02:12:00,
2013-08-20 21:42:00,76.0,68.0,-100.00,South,178,5.0,10.0,77,0.00,,,0.02,1.000000,,2013-08-21 02:42:00,
2013-08-20 21:52:00,76.0,68.0,-100.00,South,178,5.0,10.0,77,0.00,,,0.02,1.000000,,2013-08-21 02:52:00,
2013-08-20 22:02:00,76.0,68.0,-100.00,South,178,5.0,10.0,77,0.00,,,0.02,1.000000,,2013-08-21 03:02:00,
2013-08-20 22:12:00,76.0,68.0,-100.00,South,178,5.0,10.0,77,0.00,,,0.02,1.000000,,2013-08-21 03:12:00,
2013-08-20 22:13:00,75.0,68.0,-100.00,South,177,4.0,10.0,80,0.00,,,0.01,1.000000,,2013-08-21 03:13:00,
2013-08-20 22:44:00,75.0,68.0,-100.00,South,177,4.0,10.0,80,0.00,,,0.01,1.000000,,2013-08-21 03:44:00,
2013-08-20 22:55:00,75.0,68.0,-100.00,South,177,4.0,10.0,80,0.00,,,0.01,1.000000,,2013-08-21 03:55:00,
2013-08-20 23:04:00,75.0,68.0,-100.00,South,177,4.0,10.0,80,0.00,,,0.01,1.000000,,2013-08-21 04:04:00,
2013-08-20 23:13:00,75.0,68.0,-100.00,South,183,5.0,12.0,80,0.00,,,0.01,1.000000,,2013-08-21 04:13:00,
2013-08-20 23:44:00,75.0,68.0,-100.00,South,183,5.0,12.0,80,0.00,,,0.01,1.000000,,2013-08-21 04:44:00,
2013-08-20 23:54:00,75.0,68.0,-100.00,South,183,5.0,12.0,80,0.00,,,0.01,1.000000,,2013-08-21 04:54:00,